This demonstration page uses our WeatherBlox Daily Observations layout. Learn more.

Hourly Observations for October 31, 2019

Temp ( °F °C ) Dew Point ( °F °C ) Humidity (%) Winds ( mph kmh ) Pressure ( in mb ) Visibility ( mi km ) Precip ( " mm )
12:54 am 00:54 Mostly Clear 26 -3.3 16 -8.9 66 66 WNW 7 11 30.3 1026 10 16.09344 0 0
1:54 am 01:54 Clear 24 -4.4 15 -9.4 68 68 NW 7 11 30.3 1026 10 16.09344 0 0
2:54 am 02:54 Clear 23 -5 14 -10 68 68 Calm 30.3 1026 10 16.09344 0 0
3:54 am 03:54 Clear 21 -6.1 13 -10.6 71 71 NNW 5 7 30.3 1026 10 16.09344 0 0
4:54 am 04:54 Clear 21 -6.1 13 -10.6 71 71 Calm 30.27 1025 10 16.09344 0 0
5:54 am 05:54 Clear 20 -6.7 12 -11.1 71 71 WNW 3 6 30.27 1025 10 16.09344 0 0
6:54 am 06:54 Clear 19 -7.2 12 -11.1 74 74 WSW 3 6 30.27 1025 10 16.09344 0 0
7:54 am 07:54 Clear 19 -7.2 11 -11.7 71 71 WNW 6 9 30.27 1025 10 16.09344 0 0
8:54 am 08:54 Sunny 21 -6.1 11 -11.7 65 65 WNW 7 11 30.27 1025 10 16.09344 0 0
9:54 am 09:54 Sunny 26 -3.3 14 -10 60 60 W 7 11 30.27 1025 10 16.09344 0 0
10:54 am 10:54 Sunny 32 0 16 -8.9 52 52 WSW 7 11 30.27 1025 10 16.09344 0 0
11:54 am 11:54 Sunny 37 2.8 15 -9.4 41 41 W 10 17 30.27 1025 10 16.09344 0 0
12:54 pm 12:54 Sunny 39 3.9 13 -10.6 34 34 W 14 22 30.24 1024 10 16.09344 0 0
1:54 pm 13:54 Sunny 42 5.6 11 -11.7 28 28 W 17 28 30.21 1023 10 16.09344 0 0
2:54 pm 14:54 Sunny 43 6.1 10 -12.2 26 26 W 10 17 30.21 1023 10 16.09344 0 0
3:54 pm 15:54 Sunny 44 6.7 9 -12.8 24 24 W 15 24 30.18 1022 10 16.09344 0 0
4:54 pm 16:54 Sunny 44 6.7 9 -12.8 24 24 W 13 20 30.18 1022 10 16.09344 0 0
5:54 pm 17:54 Sunny 43 6.1 8 -13.3 24 24 SW 9 15 30.18 1022 10 16.09344 0 0
6:54 pm 18:54 Clear 37 2.8 11 -11.7 34 34 SW 5 7 30.18 1022 10 16.09344 0 0
7:54 pm 19:54 Clear 34 1.1 11 -11.7 38 38 S 3 6 30.18 1022 10 16.09344 0 0
8:54 pm 20:54 Clear 33 0.6 14 -10 45 45 SSE 5 7 30.18 1022 10 16.09344 0 0
9:54 pm 21:54 Clear 31 -0.6 15 -9.4 52 52 SSE 5 7 30.15 1021 10 16.09344 0 0
10:54 pm 22:54 Clear 30 -1.1 16 -8.9 56 56 S 5 7 30.15 1021 10 16.09344 0 0
11:54 pm 23:54 Clear 30 -1.1 17 -8.3 58 58 SSE 7 11 30.12 1020 10 16.09344 0 0

Powered by AerisWeather